User: anonymous   Login
Location: Eaton Estates
(41.3089°N, 82.0057°W)
Time: 18:29:10
(UTC+00:00)
Language:

Cosmos 2228 - Orbit

View from above orbital plane
View from above orbital plane
View from above satellite
View from above satellite

Ground track
Ground track

The orbit data is extracted from the following two-line orbital elements,

1 22286U 92094A   21264.47885218  .00000250  00000-0  24204-4 0  9995
2 22286  82.5230 344.7711 0020764 354.0378   6.0589 14.88326445554083
Epoch (UTC): 21 September 2021 11:29:32
Eccentricity: 0.0020764
inclination: 82.5230°
perigee height: 588 km
apogee height: 617 km
right ascension of ascending node: 344.7711°
argument of perigee: 354.0378°
revolutions per day: 14.88326445
mean anomaly at epoch: 6.0589°
orbit number at epoch: 55408

The dashed part of the orbit path shows where the satellite is in the earth's shadow,  

DLR